Year,Month,Day,Hour,Minute,Value (Times are PST for temperature in C)
2012,10,01,00,00,11.20
2012,10,01,00,01,11.20
2012,10,01,00,02,11.20
2012,10,01,00,03,11.20
2012,10,01,00,04,11.10
2012,10,01,00,05,11.10
2012,10,01,00,06,11.10
2012,10,01,00,07,11.10
2012,10,01,00,08,11.10
2012,10,01,00,09,11.10
2012,10,01,00,10,11.10
2012,10,01,00,11,11.10
2012,10,01,00,12,11.10
2012,10,01,00,13,11.10
2012,10,01,00,14,11.10
2012,10,01,00,15,11.10
2012,10,01,00,16,11.10
2012,10,01,00,17,11.10
2012,10,01,00,18,11.00
2012,10,01,00,19,11.00
2012,10,01,00,20,11.00
2012,10,01,00,21,11.00
2012,10,01,00,22,10.90
2012,10,01,00,23,10.90
2012,10,01,00,24,10.90
2012,10,01,00,25,10.90
2012,10,01,00,26,10.90
2012,10,01,00,27,10.90
2012,10,01,00,28,10.80
2012,10,01,00,29,10.80
2012,10,01,00,30,10.80
2012,10,01,00,31,10.80
2012,10,01,00,32,10.80
2012,10,01,00,33,10.80
2012,10,01,00,34,10.70
2012,10,01,00,35,10.70
2012,10,01,00,36,10.70
2012,10,01,00,37,10.60
2012,10,01,00,38,10.60
2012,10,01,00,39,10.60
2012,10,01,00,40,10.50
2012,10,01,00,41,10.50
2012,10,01,00,42,10.40
2012,10,01,00,43,10.40
2012,10,01,00,44,10.40
2012,10,01,00,45,10.40
2012,10,01,00,46,10.40
2012,10,01,00,47,10.40
2012,10,01,00,48,10.30
2012,10,01,00,49,10.30
2012,10,01,00,50,10.30
2012,10,01,00,51,10.30
2012,10,01,00,52,10.20
2012,10,01,00,53,10.20
2012,10,01,00,54,10.20
2012,10,01,00,55,10.20
2012,10,01,00,56,10.20
2012,10,01,00,57,10.10
2012,10,01,00,58,10.10
2012,10,01,00,59,10.10
2012,10,01,01,00,10.00
2012,10,01,01,01,10.00
2012,10,01,01,02,9.90
2012,10,01,01,03,9.90
2012,10,01,01,04,9.90
2012,10,01,01,05,9.80
2012,10,01,01,06,9.80
2012,10,01,01,07,9.80
2012,10,01,01,08,9.70
2012,10,01,01,09,9.70
2012,10,01,01,10,9.70
2012,10,01,01,11,9.70
2012,10,01,01,12,9.60
2012,10,01,01,13,9.60
2012,10,01,01,14,9.60
2012,10,01,01,15,9.60
2012,10,01,01,16,9.60
2012,10,01,01,17,9.50
2012,10,01,01,18,9.50
2012,10,01,01,19,9.50
2012,10,01,01,20,9.50
2012,10,01,01,21,9.40
2012,10,01,01,22,9.40
2012,10,01,01,23,9.40
2012,10,01,01,24,9.40
2012,10,01,01,25,9.30
2012,10,01,01,26,9.30
2012,10,01,01,27,9.30
2012,10,01,01,28,9.30
2012,10,01,01,29,9.30
2012,10,01,01,30,9.20
2012,10,01,01,31,9.20
2012,10,01,01,32,9.20
2012,10,01,01,33,9.20
2012,10,01,01,34,9.20
2012,10,01,01,35,9.20
2012,10,01,01,36,9.20
2012,10,01,01,37,9.20
2012,10,01,01,38,9.20
2012,10,01,01,39,9.20
2012,10,01,01,40,9.20
2012,10,01,01,41,9.20
2012,10,01,01,42,9.20
2012,10,01,01,43,9.20
2012,10,01,01,44,9.20
2012,10,01,01,45,9.20
2012,10,01,01,46,9.10
2012,10,01,01,47,9.10
2012,10,01,01,48,9.10
2012,10,01,01,49,9.00
2012,10,01,01,50,9.00
2012,10,01,01,51,9.00
2012,10,01,01,52,9.00
2012,10,01,01,53,9.00
2012,10,01,01,54,9.00
2012,10,01,01,55,9.00
2012,10,01,01,56,8.90
2012,10,01,01,57,8.90
2012,10,01,01,58,8.90
2012,10,01,01,59,8.90
2012,10,01,02,00,8.80
2012,10,01,02,01,8.80
2012,10,01,02,02,8.80
2012,10,01,02,03,8.70
2012,10,01,02,04,8.70
2012,10,01,02,05,8.70
2012,10,01,02,06,8.70
2012,10,01,02,07,8.70
2012,10,01,02,08,8.70
2012,10,01,02,09,8.70
2012,10,01,02,10,8.70
2012,10,01,02,11,8.70
2012,10,01,02,12,8.60
2012,10,01,02,13,8.60
2012,10,01,02,14,8.60
2012,10,01,02,15,8.60
2012,10,01,02,16,8.60
2012,10,01,02,17,8.60
2012,10,01,02,18,8.60
2012,10,01,02,19,8.70
2012,10,01,02,20,8.70
2012,10,01,02,21,8.70
2012,10,01,02,22,8.80
2012,10,01,02,23,8.80
2012,10,01,02,24,8.80
2012,10,01,02,25,8.80
2012,10,01,02,26,8.80
2012,10,01,02,27,8.80
2012,10,01,02,28,8.80
2012,10,01,02,29,8.80
2012,10,01,02,30,8.80
2012,10,01,02,31,8.80
2012,10,01,02,32,8.80
2012,10,01,02,33,8.90
2012,10,01,02,34,8.90
2012,10,01,02,35,8.90
2012,10,01,02,36,9.00
2012,10,01,02,37,9.00
2012,10,01,02,38,9.10
2012,10,01,02,39,9.10
2012,10,01,02,40,9.10
2012,10,01,02,41,9.10
2012,10,01,02,42,9.10
2012,10,01,02,43,9.10
2012,10,01,02,44,9.10
2012,10,01,02,45,9.10
2012,10,01,02,46,9.10
2012,10,01,02,47,9.10
2012,10,01,02,48,9.10
2012,10,01,02,49,9.00
2012,10,01,02,50,9.00
2012,10,01,02,51,9.00
2012,10,01,02,52,9.00
2012,10,01,02,53,9.10
2012,10,01,02,54,9.10
2012,10,01,02,55,9.20
2012,10,01,02,56,9.20
2012,10,01,02,57,9.20
2012,10,01,02,58,9.30
2012,10,01,02,59,9.30
2012,10,01,03,00,9.30
2012,10,01,03,01,9.30
2012,10,01,03,02,9.30
2012,10,01,03,03,9.20
2012,10,01,03,04,9.30
2012,10,01,03,05,9.30
2012,10,01,03,06,9.30
2012,10,01,03,07,9.30
2012,10,01,03,08,9.30
2012,10,01,03,09,9.40
2012,10,01,03,10,9.40
2012,10,01,03,11,9.40
2012,10,01,03,12,9.40
2012,10,01,03,13,9.40
2012,10,01,03,14,9.40
2012,10,01,03,15,9.40
2012,10,01,03,16,9.40
2012,10,01,03,17,9.40
2012,10,01,03,18,9.30
2012,10,01,03,19,9.30
2012,10,01,03,20,9.30
2012,10,01,03,21,9.30
2012,10,01,03,22,9.20
2012,10,01,03,23,9.20
2012,10,01,03,24,9.20
2012,10,01,03,25,9.20
2012,10,01,03,26,9.20
2012,10,01,03,27,9.20
2012,10,01,03,28,9.30
2012,10,01,03,29,9.30
2012,10,01,03,30,9.30
2012,10,01,03,31,9.40
2012,10,01,03,32,9.40
2012,10,01,03,33,9.50
2012,10,01,03,34,9.50
2012,10,01,03,35,9.50
2012,10,01,03,36,9.60
2012,10,01,03,37,9.60
2012,10,01,03,38,9.60
2012,10,01,03,39,9.60
2012,10,01,03,40,9.60
2012,10,01,03,41,9.70
2012,10,01,03,42,9.70
2012,10,01,03,43,9.70
2012,10,01,03,44,9.70
2012,10,01,03,45,9.70
2012,10,01,03,46,9.80
2012,10,01,03,47,9.80
2012,10,01,03,48,9.80
2012,10,01,03,49,9.90
2012,10,01,03,50,9.90
2012,10,01,03,51,9.90
2012,10,01,03,52,9.90
2012,10,01,03,53,9.90
2012,10,01,03,54,10.00
2012,10,01,03,55,10.00
2012,10,01,03,56,10.00
2012,10,01,03,57,9.90
2012,10,01,03,58,9.90
2012,10,01,03,59,9.90
2012,10,01,04,00,9.90
2012,10,01,04,01,9.90
2012,10,01,04,02,9.90
2012,10,01,04,03,9.90
2012,10,01,04,04,9.90
2012,10,01,04,05,9.90
2012,10,01,04,06,9.90
2012,10,01,04,07,9.90
2012,10,01,04,08,9.90
2012,10,01,04,09,9.90
2012,10,01,04,10,9.90
2012,10,01,04,11,9.90
2012,10,01,04,12,9.90
2012,10,01,04,13,10.00
2012,10,01,04,14,10.00
2012,10,01,04,15,10.00
2012,10,01,04,16,10.00
2012,10,01,04,17,9.90
2012,10,01,04,18,9.90
2012,10,01,04,19,9.90
2012,10,01,04,20,9.90
2012,10,01,04,21,9.90
2012,10,01,04,22,9.90
2012,10,01,04,23,9.90
2012,10,01,04,24,9.90
2012,10,01,04,25,9.90
2012,10,01,04,26,9.90
2012,10,01,04,27,9.90
2012,10,01,04,28,9.90
2012,10,01,04,29,10.00
2012,10,01,04,30,10.00
2012,10,01,04,31,10.10
2012,10,01,04,32,10.10
2012,10,01,04,33,10.10
2012,10,01,04,34,10.10
2012,10,01,04,35,10.10
2012,10,01,04,36,10.10
2012,10,01,04,37,10.10
2012,10,01,04,38,10.10
2012,10,01,04,39,10.10
2012,10,01,04,40,10.10
2012,10,01,04,41,10.10
2012,10,01,04,42,10.10
2012,10,01,04,43,10.10
2012,10,01,04,44,10.00
2012,10,01,04,45,10.00
2012,10,01,04,46,10.00
2012,10,01,04,47,10.00
2012,10,01,04,48,10.00
2012,10,01,04,49,10.10
2012,10,01,04,50,10.10
2012,10,01,04,51,10.10
2012,10,01,04,52,10.10
2012,10,01,04,53,10.10
2012,10,01,04,54,10.10
2012,10,01,04,55,10.20
2012,10,01,04,56,10.20
2012,10,01,04,57,10.20
2012,10,01,04,58,10.30
2012,10,01,04,59,10.30
2012,10,01,05,00,10.30
2012,10,01,05,01,10.30
2012,10,01,05,02,10.30
2012,10,01,05,03,10.30
2012,10,01,05,04,10.30
2012,10,01,05,05,10.30
2012,10,01,05,06,10.30
2012,10,01,05,07,10.30
2012,10,01,05,08,10.30
2012,10,01,05,09,10.30
2012,10,01,05,10,10.30
2012,10,01,05,11,10.30
2012,10,01,05,12,10.30
2012,10,01,05,13,10.20
2012,10,01,05,14,10.20
2012,10,01,05,15,10.20
2012,10,01,05,16,10.20
2012,10,01,05,17,10.20
2012,10,01,05,18,10.20
2012,10,01,05,19,10.20
2012,10,01,05,20,10.20
2012,10,01,05,21,10.20
2012,10,01,05,22,10.30
2012,10,01,05,23,10.30
2012,10,01,05,24,10.30
2012,10,01,05,25,10.30
2012,10,01,05,26,10.40
2012,10,01,05,27,10.40
2012,10,01,05,28,10.40
2012,10,01,05,29,10.50
2012,10,01,05,30,10.50
2012,10,01,05,31,10.50
2012,10,01,05,32,10.50
2012,10,01,05,33,10.40
2012,10,01,05,34,10.40
2012,10,01,05,35,10.40
2012,10,01,05,36,10.40
2012,10,01,05,37,10.40
2012,10,01,05,38,10.40
2012,10,01,05,39,10.40
2012,10,01,05,40,10.40
2012,10,01,05,41,10.40
2012,10,01,05,42,10.40
2012,10,01,05,43,10.40
2012,10,01,05,44,10.40
2012,10,01,05,45,10.40
2012,10,01,05,46,10.40
2012,10,01,05,47,10.30
2012,10,01,05,48,10.30
2012,10,01,05,49,10.30
2012,10,01,05,50,10.30
2012,10,01,05,51,10.20
2012,10,01,05,52,10.20
2012,10,01,05,53,10.20
2012,10,01,05,54,10.20
2012,10,01,05,55,10.10
2012,10,01,05,56,10.10
2012,10,01,05,57,10.00
2012,10,01,05,58,10.00
2012,10,01,05,59,9.90
2012,10,01,06,00,9.90
2012,10,01,06,01,9.80
2012,10,01,06,02,9.80
2012,10,01,06,03,9.70
2012,10,01,06,04,9.60
2012,10,01,06,05,9.60
2012,10,01,06,06,9.50
2012,10,01,06,07,9.40
2012,10,01,06,08,9.40
2012,10,01,06,09,9.30
2012,10,01,06,10,9.20
2012,10,01,06,11,9.20
2012,10,01,06,12,9.20
2012,10,01,06,13,9.20
2012,10,01,06,14,9.20
2012,10,01,06,15,9.20
2012,10,01,06,16,9.20
2012,10,01,06,17,9.20
2012,10,01,06,18,9.20
2012,10,01,06,19,9.20
2012,10,01,06,20,9.20
2012,10,01,06,21,9.20
2012,10,01,06,22,9.10
2012,10,01,06,23,9.10
2012,10,01,06,24,9.10
2012,10,01,06,25,9.10
2012,10,01,06,26,9.10
2012,10,01,06,27,9.10
2012,10,01,06,28,9.10
2012,10,01,06,29,9.10
2012,10,01,06,30,9.10
2012,10,01,06,31,9.10
2012,10,01,06,32,9.10
2012,10,01,06,33,9.10
2012,10,01,06,34,9.10
2012,10,01,06,35,9.10
2012,10,01,06,36,9.10
2012,10,01,06,37,9.10
2012,10,01,06,38,9.10
2012,10,01,06,39,9.20
2012,10,01,06,40,9.20
2012,10,01,06,41,9.20
2012,10,01,06,42,9.30
2012,10,01,06,43,9.30
2012,10,01,06,44,9.40
2012,10,01,06,45,9.40
2012,10,01,06,46,9.40
2012,10,01,06,47,9.40
2012,10,01,06,48,9.40
2012,10,01,06,49,9.40
2012,10,01,06,50,9.40
2012,10,01,06,51,9.40
2012,10,01,06,52,9.40
2012,10,01,06,53,9.40
2012,10,01,06,54,9.40
2012,10,01,06,55,9.40
2012,10,01,06,56,9.40
2012,10,01,06,57,9.40
2012,10,01,06,58,9.50
2012,10,01,06,59,9.50
2012,10,01,07,00,9.50
2012,10,01,07,01,9.60
2012,10,01,07,02,9.60
2012,10,01,07,03,9.60
2012,10,01,07,04,9.60
2012,10,01,07,05,9.60
2012,10,01,07,06,9.60
2012,10,01,07,07,9.70
2012,10,01,07,08,9.70
2012,10,01,07,09,9.80
2012,10,01,07,10,9.80
2012,10,01,07,11,9.80
2012,10,01,07,12,9.90
2012,10,01,07,13,10.00
2012,10,01,07,14,10.10
2012,10,01,07,15,10.20
2012,10,01,07,16,10.20
2012,10,01,07,17,10.30
2012,10,01,07,18,10.30
2012,10,01,07,19,10.30
2012,10,01,07,20,10.30
2012,10,01,07,21,10.30
2012,10,01,07,22,10.30
2012,10,01,07,23,10.20
2012,10,01,07,24,10.20
2012,10,01,07,25,10.20
2012,10,01,07,26,10.10
2012,10,01,07,27,10.10
2012,10,01,07,28,10.10
2012,10,01,07,29,10.10
2012,10,01,07,30,10.00
2012,10,01,07,31,10.00
2012,10,01,07,32,9.90
2012,10,01,07,33,9.90
2012,10,01,07,34,9.90
2012,10,01,07,35,10.00
2012,10,01,07,36,10.00
2012,10,01,07,37,10.00
2012,10,01,07,38,10.00
2012,10,01,07,39,10.00
2012,10,01,07,40,10.00
2012,10,01,07,41,10.00
2012,10,01,07,42,10.00
2012,10,01,07,43,10.00
2012,10,01,07,44,9.90
2012,10,01,07,45,9.90
2012,10,01,07,46,9.90
2012,10,01,07,47,9.90
2012,10,01,07,48,9.80
2012,10,01,07,49,9.80
2012,10,01,07,50,9.80
2012,10,01,07,51,9.80
2012,10,01,07,52,9.80
2012,10,01,07,53,9.80
2012,10,01,07,54,9.80
2012,10,01,07,55,9.80
2012,10,01,07,56,9.80
2012,10,01,07,57,9.80
2012,10,01,07,58,9.80
2012,10,01,07,59,9.80
2012,10,01,08,00,9.80
2012,10,01,08,01,9.80
2012,10,01,08,02,9.80
2012,10,01,08,03,9.80
2012,10,01,08,04,9.80
2012,10,01,08,05,9.80
2012,10,01,08,06,9.80
2012,10,01,08,07,9.90
2012,10,01,08,08,9.90
2012,10,01,08,09,9.90
2012,10,01,08,10,9.80
2012,10,01,08,11,9.80
2012,10,01,08,12,9.80
2012,10,01,08,13,9.80
2012,10,01,08,14,9.80
2012,10,01,08,15,9.80
2012,10,01,08,16,9.80
2012,10,01,08,17,9.80
2012,10,01,08,18,9.80
2012,10,01,08,19,9.80
2012,10,01,08,20,9.80
2012,10,01,08,21,9.80
2012,10,01,08,22,9.80
2012,10,01,08,23,9.80
2012,10,01,08,24,9.80
2012,10,01,08,25,9.80
2012,10,01,08,26,9.90
2012,10,01,08,27,9.90
2012,10,01,08,28,9.90
2012,10,01,08,29,9.90
2012,10,01,08,30,9.90
2012,10,01,08,31,10.00
2012,10,01,08,32,10.10
2012,10,01,08,33,10.10
2012,10,01,08,34,10.20
2012,10,01,08,35,10.30
2012,10,01,08,36,10.30
2012,10,01,08,37,10.40
2012,10,01,08,38,10.50
2012,10,01,08,39,10.60
2012,10,01,08,40,10.70
2012,10,01,08,41,10.80
2012,10,01,08,42,11.00
2012,10,01,08,43,11.00
2012,10,01,08,44,11.20
2012,10,01,08,45,11.30
2012,10,01,08,46,11.40
2012,10,01,08,47,11.50
2012,10,01,08,48,11.60
2012,10,01,08,49,11.70
2012,10,01,08,50,11.80
2012,10,01,08,51,11.90
2012,10,01,08,52,11.90
2012,10,01,08,53,12.00
2012,10,01,08,54,12.00
2012,10,01,08,55,12.10
2012,10,01,08,56,12.20
2012,10,01,08,57,12.20
2012,10,01,08,58,12.30
2012,10,01,08,59,12.30
2012,10,01,09,00,12.40
2012,10,01,09,01,12.50
2012,10,01,09,02,12.50
2012,10,01,09,03,12.60
2012,10,01,09,04,12.60
2012,10,01,09,05,12.70
2012,10,01,09,06,12.70
2012,10,01,09,07,12.70
2012,10,01,09,08,12.80
2012,10,01,09,09,12.90
2012,10,01,09,10,12.90
2012,10,01,09,11,13.00
2012,10,01,09,12,13.10
2012,10,01,09,13,13.10
2012,10,01,09,14,13.10
2012,10,01,09,15,13.10
2012,10,01,09,16,13.10
2012,10,01,09,17,13.10
2012,10,01,09,18,13.00
2012,10,01,09,19,13.00
2012,10,01,09,20,13.10
2012,10,01,09,21,13.10
2012,10,01,09,22,13.20
2012,10,01,09,23,13.30
2012,10,01,09,24,13.40
2012,10,01,09,25,13.50
2012,10,01,09,26,13.70
2012,10,01,09,27,13.80
2012,10,01,09,28,13.90
2012,10,01,09,29,14.00
2012,10,01,09,30,14.20
2012,10,01,09,31,14.20
2012,10,01,09,32,14.30
2012,10,01,09,33,14.30
2012,10,01,09,34,13.90
2012,10,01,09,35,13.40
2012,10,01,09,36,13.50
2012,10,01,09,37,13.50
2012,10,01,09,38,13.60
2012,10,01,09,39,13.70
2012,10,01,09,40,13.70
2012,10,01,09,41,13.70
2012,10,01,09,42,13.70
2012,10,01,09,43,13.70
2012,10,01,09,44,13.70
2012,10,01,09,45,13.70
2012,10,01,09,46,13.70
2012,10,01,09,47,13.70
2012,10,01,09,48,13.70
2012,10,01,09,49,13.70
2012,10,01,09,50,13.60
2012,10,01,09,51,13.60
2012,10,01,09,52,13.60
2012,10,01,09,53,13.60
2012,10,01,09,54,13.60
2012,10,01,09,55,13.60
2012,10,01,09,56,13.50
2012,10,01,09,57,13.40
2012,10,01,09,58,13.40
2012,10,01,09,59,13.40
2012,10,01,10,00,13.40
2012,10,01,10,01,13.30
2012,10,01,10,02,13.20
2012,10,01,10,03,13.20
2012,10,01,10,04,13.20
2012,10,01,10,05,13.20
2012,10,01,10,06,13.10
2012,10,01,10,07,13.10
2012,10,01,10,08,13.10
2012,10,01,10,09,13.10
2012,10,01,10,10,13.10
2012,10,01,10,11,13.00
2012,10,01,10,12,12.90
2012,10,01,10,13,12.90
2012,10,01,10,14,12.80
2012,10,01,10,15,12.80
2012,10,01,10,16,12.80
2012,10,01,10,17,12.80
2012,10,01,10,18,13.00
2012,10,01,10,19,13.00
2012,10,01,10,20,13.10
2012,10,01,10,21,13.10
2012,10,01,10,22,13.10
2012,10,01,10,23,13.00
2012,10,01,10,24,12.90
2012,10,01,10,25,12.90
2012,10,01,10,26,12.80
2012,10,01,10,27,12.80
2012,10,01,10,28,12.80
2012,10,01,10,29,12.70
2012,10,01,10,30,12.70
2012,10,01,10,31,12.80
2012,10,01,10,32,12.80
2012,10,01,10,33,13.00
2012,10,01,10,34,13.20
2012,10,01,10,35,13.30
2012,10,01,10,36,13.30
2012,10,01,10,37,13.30
2012,10,01,10,38,13.20
2012,10,01,10,39,13.20
2012,10,01,10,40,13.10
2012,10,01,10,41,13.10
2012,10,01,10,42,13.10
2012,10,01,10,43,13.10
2012,10,01,10,44,13.20
2012,10,01,10,45,13.20
2012,10,01,10,46,13.20
2012,10,01,10,47,13.30
2012,10,01,10,48,13.40
2012,10,01,10,49,13.50
2012,10,01,10,50,13.60
2012,10,01,10,51,13.70
2012,10,01,10,52,13.80
2012,10,01,10,53,13.80
2012,10,01,10,54,13.90
2012,10,01,10,55,14.00
2012,10,01,10,56,14.00
2012,10,01,10,57,14.00
2012,10,01,10,58,14.10
2012,10,01,10,59,14.20
2012,10,01,11,00,14.30
2012,10,01,11,01,14.40
2012,10,01,11,02,14.40
2012,10,01,11,03,14.40
2012,10,01,11,04,14.50
2012,10,01,11,05,14.50
2012,10,01,11,06,14.60
2012,10,01,11,07,14.70
2012,10,01,11,08,14.80
2012,10,01,11,09,14.80
2012,10,01,11,10,14.90
2012,10,01,11,11,15.00
2012,10,01,11,12,15.00
2012,10,01,11,13,15.00
2012,10,01,11,14,15.00
2012,10,01,11,15,14.90
2012,10,01,11,16,15.00
2012,10,01,11,17,15.10
2012,10,01,11,18,15.20
2012,10,01,11,19,15.30
2012,10,01,11,20,15.50
2012,10,01,11,21,15.70
2012,10,01,11,22,15.90
2012,10,01,11,23,16.10
2012,10,01,11,24,16.20
2012,10,01,11,25,16.40
2012,10,01,11,26,16.60
2012,10,01,11,27,16.80
2012,10,01,11,28,17.00
2012,10,01,11,29,17.10
2012,10,01,11,30,17.30
2012,10,01,11,31,17.50
2012,10,01,11,32,17.70
2012,10,01,11,33,17.90
2012,10,01,11,34,18.00
2012,10,01,11,35,18.20
2012,10,01,11,36,18.30
2012,10,01,11,37,18.30
2012,10,01,11,38,18.20
2012,10,01,11,39,18.20
2012,10,01,11,40,18.20
2012,10,01,11,41,18.10
2012,10,01,11,42,18.10
2012,10,01,11,43,18.00
2012,10,01,11,44,17.90
2012,10,01,11,45,17.70
2012,10,01,11,46,17.70
2012,10,01,11,47,17.70
2012,10,01,11,48,17.70
2012,10,01,11,49,17.70
2012,10,01,11,50,17.80
2012,10,01,11,51,17.90
2012,10,01,11,52,17.90
2012,10,01,11,53,18.00
2012,10,01,11,54,18.10
2012,10,01,11,55,18.20
2012,10,01,11,56,18.20
2012,10,01,11,57,18.10
2012,10,01,11,58,18.10
2012,10,01,11,59,18.10
2012,10,01,12,00,18.20
2012,10,01,12,01,18.40
2012,10,01,12,02,18.60
2012,10,01,12,03,18.80
2012,10,01,12,04,19.00
2012,10,01,12,05,19.10
2012,10,01,12,06,19.20
2012,10,01,12,07,19.30
2012,10,01,12,08,19.40
2012,10,01,12,09,19.50
2012,10,01,12,10,19.50
2012,10,01,12,11,19.60
2012,10,01,12,12,19.60
2012,10,01,12,13,19.60
2012,10,01,12,14,19.60
2012,10,01,12,15,19.60
2012,10,01,12,16,19.60
2012,10,01,12,17,19.70
2012,10,01,12,18,19.70
2012,10,01,12,19,19.80
2012,10,01,12,20,19.80
2012,10,01,12,21,19.90
2012,10,01,12,22,19.90
2012,10,01,12,23,20.00
2012,10,01,12,24,20.10
2012,10,01,12,25,20.10
2012,10,01,12,26,20.20
2012,10,01,12,27,20.20
2012,10,01,12,28,20.20
2012,10,01,12,29,20.20
2012,10,01,12,30,20.20
2012,10,01,12,31,20.20
2012,10,01,12,32,20.20
2012,10,01,12,33,20.20
2012,10,01,12,34,20.20
2012,10,01,12,35,20.20
2012,10,01,12,36,20.20
2012,10,01,12,37,20.20
2012,10,01,12,38,20.20
2012,10,01,12,39,20.20
2012,10,01,12,40,20.20
2012,10,01,12,41,20.10
2012,10,01,12,42,20.00
2012,10,01,12,43,19.90
2012,10,01,12,44,19.90
2012,10,01,12,45,19.90
2012,10,01,12,46,19.90
2012,10,01,12,47,19.90
2012,10,01,12,48,19.90
2012,10,01,12,49,19.90
2012,10,01,12,50,20.00
2012,10,01,12,51,20.10
2012,10,01,12,52,20.20
2012,10,01,12,53,20.20
2012,10,01,12,54,20.20
2012,10,01,12,55,20.30
2012,10,01,12,56,20.30
2012,10,01,12,57,20.40
2012,10,01,12,58,20.40
2012,10,01,12,59,20.50
2012,10,01,13,00,20.50
2012,10,01,13,01,20.60
2012,10,01,13,02,20.60
2012,10,01,13,03,20.70
2012,10,01,13,04,20.70
2012,10,01,13,05,20.70
2012,10,01,13,06,20.70
2012,10,01,13,07,20.70
2012,10,01,13,08,20.80
2012,10,01,13,09,20.70
2012,10,01,13,10,20.70
2012,10,01,13,11,20.60
2012,10,01,13,12,20.60
2012,10,01,13,13,20.60
2012,10,01,13,14,20.60
2012,10,01,13,15,20.60
2012,10,01,13,16,20.60
2012,10,01,13,17,20.60
2012,10,01,13,18,20.60
2012,10,01,13,19,20.60
2012,10,01,13,20,20.70
2012,10,01,13,21,20.70
2012,10,01,13,22,20.80
2012,10,01,13,23,20.80
2012,10,01,13,24,20.90
2012,10,01,13,25,21.00
2012,10,01,13,26,21.10
2012,10,01,13,27,21.20
2012,10,01,13,28,21.30
2012,10,01,13,29,21.30
2012,10,01,13,30,21.30
2012,10,01,13,31,21.30
2012,10,01,13,32,21.30
2012,10,01,13,33,21.30
2012,10,01,13,34,21.30
2012,10,01,13,35,21.30
2012,10,01,13,36,21.40
2012,10,01,13,37,21.30
2012,10,01,13,38,21.30
2012,10,01,13,39,21.30
2012,10,01,13,40,21.30
2012,10,01,13,41,21.30
2012,10,01,13,42,21.30
2012,10,01,13,43,21.30
2012,10,01,13,44,21.30
2012,10,01,13,45,21.40
2012,10,01,13,46,21.40
2012,10,01,13,47,21.50
2012,10,01,13,48,21.60
2012,10,01,13,49,21.60
2012,10,01,13,50,21.60
2012,10,01,13,51,21.70
2012,10,01,13,52,21.90
2012,10,01,13,53,22.00
2012,10,01,13,54,22.00
2012,10,01,13,55,22.10
2012,10,01,13,56,22.10
2012,10,01,13,57,22.10
2012,10,01,13,58,22.10
2012,10,01,13,59,22.10
2012,10,01,14,00,22.10
2012,10,01,14,01,22.10
2012,10,01,14,02,22.10
2012,10,01,14,03,22.10
2012,10,01,14,04,22.10
2012,10,01,14,05,22.10
2012,10,01,14,06,22.10
2012,10,01,14,07,22.10
2012,10,01,14,08,22.10
2012,10,01,14,09,22.20
2012,10,01,14,10,22.20
2012,10,01,14,11,22.30
2012,10,01,14,12,22.30
2012,10,01,14,13,22.30
2012,10,01,14,14,22.30
2012,10,01,14,15,22.30
2012,10,01,14,16,22.40
2012,10,01,14,17,22.60
2012,10,01,14,18,22.60
2012,10,01,14,19,22.60
2012,10,01,14,20,22.60
2012,10,01,14,21,22.60
2012,10,01,14,22,22.50
2012,10,01,14,23,22.50
2012,10,01,14,24,22.40
2012,10,01,14,25,22.40
2012,10,01,14,26,22.40
2012,10,01,14,27,22.40
2012,10,01,14,28,22.30
2012,10,01,14,29,22.30
2012,10,01,14,30,22.20
2012,10,01,14,31,22.20
2012,10,01,14,32,22.10
2012,10,01,14,33,22.00
2012,10,01,14,34,22.00
2012,10,01,14,35,21.90
2012,10,01,14,36,21.90
2012,10,01,14,37,21.80
2012,10,01,14,38,21.80
2012,10,01,14,39,21.80
2012,10,01,14,40,21.80
2012,10,01,14,41,21.80
2012,10,01,14,42,21.70
2012,10,01,14,43,21.60
2012,10,01,14,44,21.60
2012,10,01,14,45,21.60
2012,10,01,14,46,21.50
2012,10,01,14,47,21.40
2012,10,01,14,48,21.40
2012,10,01,14,49,21.40
2012,10,01,14,50,21.40
2012,10,01,14,51,21.30
2012,10,01,14,52,21.30
2012,10,01,14,53,21.30
2012,10,01,14,54,21.30
2012,10,01,14,55,21.30
2012,10,01,14,56,21.30
2012,10,01,14,57,21.30
2012,10,01,14,58,21.30
2012,10,01,14,59,21.30
2012,10,01,15,00,21.20
2012,10,01,15,01,21.20
2012,10,01,15,02,21.20
2012,10,01,15,03,21.20
2012,10,01,15,04,21.10
2012,10,01,15,05,21.10
2012,10,01,15,06,21.10
2012,10,01,15,07,21.10
2012,10,01,15,08,21.10
2012,10,01,15,09,21.00
2012,10,01,15,10,21.00
2012,10,01,15,11,21.00
2012,10,01,15,12,21.00
2012,10,01,15,13,20.90
2012,10,01,15,14,20.90
2012,10,01,15,15,20.90
2012,10,01,15,16,20.90
2012,10,01,15,17,20.90
2012,10,01,15,18,20.80
2012,10,01,15,19,20.80
2012,10,01,15,20,20.80
2012,10,01,15,21,20.80
2012,10,01,15,22,20.70
2012,10,01,15,23,20.70
2012,10,01,15,24,20.70
2012,10,01,15,25,20.70
2012,10,01,15,26,20.70
2012,10,01,15,27,20.70
2012,10,01,15,28,20.70
2012,10,01,15,29,20.60
2012,10,01,15,30,20.60
2012,10,01,15,31,20.60
2012,10,01,15,32,20.60
2012,10,01,15,33,20.60
2012,10,01,15,34,20.60
2012,10,01,15,35,20.60
2012,10,01,15,36,20.60
2012,10,01,15,37,20.60
2012,10,01,15,38,20.60
2012,10,01,15,39,20.60
2012,10,01,15,40,20.70
2012,10,01,15,41,20.70
2012,10,01,15,42,20.70
2012,10,01,15,43,20.80
2012,10,01,15,44,20.80
2012,10,01,15,45,20.80
2012,10,01,15,46,20.80
2012,10,01,15,47,20.90
2012,10,01,15,48,20.90
2012,10,01,15,49,20.90
2012,10,01,15,50,20.90
2012,10,01,15,51,21.00
2012,10,01,15,52,21.00
2012,10,01,15,53,21.00
2012,10,01,15,54,21.00
2012,10,01,15,55,21.00
2012,10,01,15,56,21.10
2012,10,01,15,57,21.10
2012,10,01,15,58,21.20
2012,10,01,15,59,21.30
2012,10,01,16,00,21.30
2012,10,01,16,01,21.30
2012,10,01,16,02,21.30
2012,10,01,16,03,21.30
2012,10,01,16,04,21.40
2012,10,01,16,05,21.40
2012,10,01,16,06,21.40
2012,10,01,16,07,21.40
2012,10,01,16,08,21.50
2012,10,01,16,09,21.60
2012,10,01,16,10,21.60
2012,10,01,16,11,21.60
2012,10,01,16,12,21.60
2012,10,01,16,13,21.70
2012,10,01,16,14,21.70
2012,10,01,16,15,21.60
2012,10,01,16,16,21.60
2012,10,01,16,17,21.60
2012,10,01,16,18,21.60
2012,10,01,16,19,21.60
2012,10,01,16,20,21.50
2012,10,01,16,21,21.40
2012,10,01,16,22,21.30
2012,10,01,16,23,21.30
2012,10,01,16,24,21.20
2012,10,01,16,25,21.10
2012,10,01,16,26,21.10
2012,10,01,16,27,21.00
2012,10,01,16,28,21.00
2012,10,01,16,29,20.90
2012,10,01,16,30,20.90
2012,10,01,16,31,20.90
2012,10,01,16,32,20.90
2012,10,01,16,33,20.90
2012,10,01,16,34,21.00
2012,10,01,16,35,21.00
2012,10,01,16,36,21.00
2012,10,01,16,37,21.00
2012,10,01,16,38,21.10
2012,10,01,16,39,21.10
2012,10,01,16,40,21.10
2012,10,01,16,41,21.10
2012,10,01,16,42,21.10
2012,10,01,16,43,21.10
2012,10,01,16,44,21.00
2012,10,01,16,45,21.00
2012,10,01,16,46,21.00
2012,10,01,16,47,21.00
2012,10,01,16,48,21.00
2012,10,01,16,49,21.00
2012,10,01,16,50,20.90
2012,10,01,16,51,20.90
2012,10,01,16,52,20.90
2012,10,01,16,53,20.80
2012,10,01,16,54,20.80
2012,10,01,16,55,20.80
2012,10,01,16,56,20.70
2012,10,01,16,57,20.70
2012,10,01,16,58,20.60
2012,10,01,16,59,20.50
2012,10,01,17,00,20.50
2012,10,01,17,01,20.30
2012,10,01,17,02,20.20
2012,10,01,17,03,20.10
2012,10,01,17,04,20.00
2012,10,01,17,05,19.90
2012,10,01,17,06,19.80
2012,10,01,17,07,19.70
2012,10,01,17,08,19.70
2012,10,01,17,09,19.60
2012,10,01,17,10,19.50
2012,10,01,17,11,19.40
2012,10,01,17,12,19.30
2012,10,01,17,13,19.20
2012,10,01,17,14,19.10
2012,10,01,17,15,19.10
2012,10,01,17,16,19.10
2012,10,01,17,17,19.10
2012,10,01,17,18,19.00
2012,10,01,17,19,18.90
2012,10,01,17,20,18.90
2012,10,01,17,21,18.80
2012,10,01,17,22,18.80
2012,10,01,17,23,18.70
2012,10,01,17,24,18.70
2012,10,01,17,25,18.70
2012,10,01,17,26,18.70
2012,10,01,17,27,18.70
2012,10,01,17,28,18.70
2012,10,01,17,29,18.70
2012,10,01,17,30,18.70
2012,10,01,17,31,18.70
2012,10,01,17,32,18.70
2012,10,01,17,33,18.70